Regional Weather Roundup
Issued by NWS

Home | Current Version | Previous Version | Graphics & Text | Print | Product List | Glossary On
Versions: 1 2 3 4 5 6 7 8 9 10 11 12 13 14 15 16 17 18 19 20 21 22 23 24 25 26 27 28 29 30 31 32 33 34 35 36 37 38 39 40 41 42 43 44 45 46 47 48 49 50
000
ASUS43 KLMK 261602
RWRKY
KENTUCKY REGIONAL WEATHER ROUNDUP
NATIONAL WEATHER SERVICE LOUISVILLE KY
1200 PM EDT THU MAY 26 2016

NOTE "FAIR" INDICATES FEW OR NO CLOUDS BELOW 12,000 FEET
WITH NO SIGNIFICANT WEATHER AND/OR OBSTRUCTIONS TO VISIBILITY.

KYZ001>023-026-027-061>063-070>075-261700-
WESTERN AND SOUTH CENTRAL KENTUCKY

CITY           SKY/WX    TMP DP  RH WIND       PRES   REMARKS
PADUCAH        CLOUDY    78  70  76 SW9       30.04F
HENDERSON      PTSUNNY   79  70  73 W10       30.04S
OWENSBORO      MOSUNNY   82  73  74 SW15      30.04F
HOPKINSVILLE   NOT AVBL
BOWLING GREEN  PTSUNNY   80  69  69 SW12      30.10S
GLASGOW        NOT AVBL
$$

KYZ024-025-028>034-038-045-046-053-261700-
NORTH CENTRAL KENTUCKY

CITY           SKY/WX    TMP DP  RH WIND       PRES   REMARKS
LOUISVILLE/SDF PTSUNNY   79  65  62 S12       30.07F
LOUISVILLE/LOU MOSUNNY   78  65  63 S8        30.08F
FORT KNOX      CLOUDY    78  66  68 S12       30.07F
$$

KYZ035>037-039>044-047>052-055>060-089>105-261700-
NORTHEAST KENTUCKY

CITY           SKY/WX    TMP DP  RH WIND       PRES   REMARKS
LEXINGTON      CLOUDY    74  65  73 S15G25    30.13S
COVINGTON      PTSUNNY   76  65  68 S10       30.08S
FRANKFORT      CLOUDY    75  63  66 S15G21    30.10S
$$

KYZ054-064>069-076>088-106>120-261700-
SOUTHEAST KENTUCKY

CITY           SKY/WX    TMP DP  RH WIND       PRES   REMARKS
JACKSON        CLOUDY    66  63  90 S6        30.18F
LONDON         CLOUDY    68  63  84 S5        30.20R
SOMERSET       NOT AVBL
MIDDLESBORO    NOT AVBL
MONTICELLO     TSTM      70  68  93 VRB7      30.19S
$$




USA.gov is the U.S. government's official web portal to all federal, state and local government web resources and services.